Home > Weather > Hammerfest > Past weeks

Flag for Norway Weather for the Past 2 Weeks in Hammerfest, Norway

Now
50 °F

Overcast.


Feels Like: 47 °F
Forecast: 40 / 50 °F
Wind: 8 mph from Southwest

Location: Hammerfest

Current Time: Apr 30, 2016 at 7:06:11 PM

Latest Report: Apr 30, 2016 at 5:50 PM


Visibility: N/A

Pressure: 30.33 "Hg

Humidity: 62%

Dew Point: 37 °F

Location of HammerfestLocation

Historic Weather in Hammerfest — Graph

°F

Hammerfest Temperature Yesterday

Maximum temperature yesterday: 54 °F (at 3:50 PM)
Minimum temperature yesterday: 41 °F (at 1:50 AM)
Average temperature yesterday: 48 °F

High & Low Weather Summary for the Past Weeks

 TemperatureHumidityPressure
High54 °F (Apr 29, 3:50 PM)100% (Apr 18, 2:50 AM)30.36 "Hg (Apr 18, 2:50 AM)
Low25 °F (Apr 19, 4:50 AM)47% (Apr 28, 4:50 PM)29.42 "Hg (Apr 17, 6:50 AM)
Average37 °F68%29.89 "Hg
* Reported Apr 15 5:50 PM — Apr 30 5:50 PM, Hammerfest, Weather by CustomWeather, © 2016

Note: Actual official high and low records may vary slightly from our data, if they occured in-between our weather recording intervals... More about our weather records

Advertising

Hammerfest Weather History for the Previous 24 Hours

Scroll right to see more
 ConditionsComfort  
Time TempWeatherWind HumidityBarometerVisibility
5:50 PM
Sat, Apr 30
50 °FOvercast.8 mph62%30.33 "HgN/A
4:50 PM52 °FPassing clouds.5 mph54%30.33 "HgN/A
3:50 PM54 °FPassing clouds.6 mph58%30.33 "HgN/A
2:50 PM54 °FSunny.3 mph58%30.33 "Hg10 mi
1:50 PM54 °FPassing clouds.5 mph54%30.33 "HgN/A
12:50 PM52 °FSunny.2 mph54%30.33 "Hg10 mi
11:50 AM52 °FSunny.2 mph54%30.33 "Hg10 mi
10:50 AM50 °FPassing clouds.6 mph58%30.33 "HgN/A
9:50 AM52 °FSunny.8 mph54%30.33 "Hg10 mi
8:50 AM52 °FSunny.6 mph54%30.33 "Hg10 mi
7:50 AM50 °FSunny.1 mph62%30.33 "Hg10 mi
6:50 AM45 °FSunny.2 mph66%30.33 "Hg10 mi
5:50 AM46 °FSunny.2 mph66%30.33 "Hg10 mi
4:50 AM41 °FSunny.1 mph76%30.33 "Hg10 mi
3:50 AM43 °FPassing clouds.3 mph76%30.33 "HgN/A
2:50 AM43 °FClear.1 mph71%30.33 "Hg10 mi
12:50 AM41 °FClear.2 mph76%30.33 "Hg10 mi
11:50 PM
Fri, Apr 29
46 °FClear.2 mph62%30.33 "Hg10 mi
10:50 PM50 °FPassing clouds.10 mph58%30.33 "HgN/A
9:50 PM48 °FPassing clouds.5 mph58%30.33 "HgN/A
8:50 PM46 °FSunny.8 mph66%30.33 "Hg10 mi
7:50 PM48 °FSunny.9 mph58%30.33 "Hg10 mi
Weather by CustomWeather, © 2016

See weather overviewHow to use our weather pages